Location: Chiroubles
(46.1812°N, 4.6660°E)
Time: 17:11:07
(UTC+00:00)

Cosmos 2227 Rocket - Pass Details

Date: 15 August 2020
Orbit: 840 x 844 km, 71.0° (Epoch: 23 September)

Event Time Altitude Azimuth Distance (km) Brightness Sun altitude
Exits shadow 23:21:49 40° 68° (ENE) 1,223 3.0 -29.9°
Drops below altitude 10° 23:25:51 10° 36° (NE) 2,471 5.2 -30.0°
Sets 23:28:22 0° 31° (NNE) 3,409 6.1 -30.0°
